Bad Axe, MI (48413)

6:37 PM EST on February 11, 2016 (GMT -0500)
Thumb sunrise side | | Change Station
CLOSE
Current Station
Personal Weather Station
Location: Bad Axe, MI
Elevation: 758 ft
Nearby Weather Stations

Elev 758 ft 43.79 °N, 83.00 °W | Updated 4 minutes ago

Mostly Cloudy
Mostly Cloudy
9.1 °F
Feels Like 9 °F
N
2.2
Wind Variable Wind from ESE

Today
High -- | Low -- °F
--% Chance of Precip.
Yesterday
High -- | Low -- °F
Precip. -- in
Pressure 30.19 in
Visibility 10.0 miles
Clouds Scattered Clouds 4600 ft
Mostly Cloudy 5000 ft
Windchill 9 °F
Dew Point 3 °F
Humidity 76%
Rainfall 0.00 in
Snow Depth Not available.
7:37 AM 5:55 PM
Waxing Crescent, 15% visible
METAR KBAX 112314Z AUTO 19005KT 10SM SCT046 BKN050 M12/M17 A3019 RMK AO2 T11201166
Pressure 30.19 in
Visibility 10.0 miles
Clouds Scattered Clouds 4600 ft
Mostly Cloudy 5000 ft
Windchill 9 °F
Dew Point 3 °F
Humidity 76%
Rainfall 0.00 in
Snow Depth Not available.
7:37 AM 5:55 PM
Waxing Crescent, 15% visible
METAR KBAX 112314Z AUTO 19005KT 10SM SCT046 BKN050 M12/M17 A3019 RMK AO2 T11201166

10-Day Weather Forecast

Almanac

Astronomy

Feb. 11, 2016 Rise Set
Actual Time
Civil Twilight
Nautical Twilight
Astronomical Twilight
Moon
Length of Visible Light
Length of Day
Tomorrow will be .
, % of the Moon is Illuminated

Today's Extremes

State Highs State Lows

Community

WunderPhotos

Upload Photos

1,892,181 photos uploaded!

WunderBlog® & News

Nearby

Air Quality

  Air Quality AQ Index Pollutant
Not available.

Snow Depth

Station Depth Elevation

Earthquake Activity

City Distance Mag. Time & Date
Minimum magnitude displayed is 2.5.

Coastal Water Temperatures

Place Temperature

Stations

Nearby Weather Stations

Station Location Temp. Windchill Dew Point Humidity Wind Precip. Elev Updated Type
                   

Watches & Warnings

There are currently no watches in effect.